This is the latest recevied weather packets stored in our database for station/object KI6SYE. If no packets are shown the sender has not sent any weather packets the latest 10 day(s).
| Time | Temp. | Humidity | Pressure | Rain* | Wind** | Luminosity | Snow |
|---|---|---|---|---|---|---|---|
| 1778161204 | 15° C | 93% | 1015.9 hPa | 0 mm | - | 35 W/m² | - |
| 1778160900 | 15° C | 94% | 1016.2 hPa | 0 mm | - | 26 W/m² | - |
| 1778160599 | 14.44° C | 94% | 1015.9 hPa | 0 mm | - | 22 W/m² | - |
| 1778160295 | 15° C | 94% | 1015.9 hPa | 0 mm | - | 18 W/m² | - |
| 1778159991 | 14.44° C | 94% | 1015.9 hPa | 0 mm | - | 13 W/m² | - |
| 1778159688 | 14.44° C | 94% | 1015.9 hPa | 0 mm | - | 10 W/m² | - |
| 1778159385 | 14.44° C | 94% | 1016 hPa | 0 mm | - | 7 W/m² | - |
| 1778159082 | 13.89° C | 94% | 1015.9 hPa | 0 mm | - | 5 W/m² | - |
| 1778158781 | 13.89° C | 93% | 1015.7 hPa | 0 mm | - | 3 W/m² | - |
| 1778158479 | 15° C | 93% | 1015.6 hPa | 0 mm | - | 1 W/m² | - |
| 1778158176 | 14.44° C | 94% | 1015.7 hPa | 0 mm | - | 1 W/m² | - |
| 1778157872 | 14.44° C | 94% | 1015.7 hPa | 0 mm | - | 0 W/m² | - |
| 1778157570 | 13.89° C | 93% | 1015.5 hPa | 0 mm | - | 0 W/m² | - |
| 1778157267 | 13.89° C | 93% | 1015.6 hPa | 0 mm | - | 0 W/m² | - |
| 1778156963 | 13.89° C | 93% | 1015.8 hPa | 0 mm | - | 0 W/m² | - |
| 1778156659 | 13.89° C | 93% | 1015.7 hPa | 0 mm | - | 0 W/m² | - |
| 1778156356 | 13.89° C | 93% | 1015.8 hPa | 0 mm | - | 0 W/m² | - |
| 1778156051 | 13.89° C | 92% | 1015.8 hPa | 0 mm | - | 0 W/m² | - |
| 1778155748 | 13.89° C | 92% | 1015.6 hPa | 0 mm | - | 0 W/m² | - |
| 1778155444 | 13.89° C | 92% | 1015.8 hPa | 0 mm | - | 0 W/m² | - |
| 1778155141 | 14.44° C | 91% | 1015.7 hPa | 0 mm | - | 0 W/m² | - |
| 1778154836 | 14.44° C | 91% | 1015.7 hPa | 0 mm | - | 0 W/m² | - |
| 1778154532 | 14.44° C | 91% | 1015.6 hPa | 0 mm | - | 0 W/m² | - |
| 1778154230 | 14.44° C | 91% | 1015.6 hPa | 0 mm | - | 0 W/m² | - |
| 1778153927 | 14.44° C | 91% | 1015.7 hPa | 0 mm | - | 0 W/m² | - |
* Rain latest hour (hover to see other rain measurements)
** Current wind speed in m/s (hover to see current wind gust speed)